#timestamp,LO_Frequency,Hit,StdDev 
1653926415.4,286046995.5,P
1653926435.2,286046995.4,N
1653926455.0,286046995.6,N
1653926456.0,286046995.6,N
1653926475.8,286046999.3,N
1653926495.7,286046998.7,N
1653926515.5,286046997.3,N
1653926535.3,286046998.9,N
1653926555.2,286047002.7,N
1653926575.0,286047002.7,N
1653926575.9,286047002.7,N
1653926595.8,286047011.9,Y
1653926615.6,286047003.1,P
1653926635.4,286047003.0,N
1653926655.3,286047001.8,N
1653926675.1,286047005.3,N
1653926676.0,286047005.3,N
1653926695.8,286047004.9,N
1653926715.7,286047005.1,N
1653926735.5,286047007.0,Y
1653926755.4,286047003.6,P
1653926775.2,286047005.3,P
1653926795.0,286047006.6,P
1653926795.9,286047006.6,Y
1653926815.8,286047003.1,P
1653926835.6,286047003.1,P
1653926855.5,286047005.6,P
1653926875.3,286047001.4,N
1653926895.2,286047002.9,N
1653926915.9,286047003.0,N
1653926935.7,286047003.0,N
1653926955.6,286047003.4,N
1653926975.4,286047005.7,Y
1653926995.2,286047000.1,P
1653927015.1,286047001.4,N
1653927016.0,286047001.4,N
1653927035.8,286047002.4,N
1653927055.7,286047000.6,N
1653927075.5,286046999.9,N
1653927095.3,286047000.9,N
1653927115.2,286047000.2,N
1653927135.0,286047002.1,N
1653927135.9,286047002.1,N
1653927155.8,286047003.3,Y
1653927175.6,286047004.2,P
1653927195.4,286047004.1,N
1653927215.3,286047006.0,P
1653927235.1,286047003.4,N
1653927236.0,286047003.4,N
1653927255.8,286047005.4,Y
1653927275.7,286047000.0,P
1653927295.5,286047000.6,N
1653927315.4,286047000.0,N
1653927335.2,286047000.6,N
1653927355.0,286047000.9,N
1653927355.9,286047000.9,N
1653927375.8,286047001.4,N
1653927395.1,286047002.4,N
1653927415.9,286046999.8,N
1653927435.7,286046998.7,N
1653927455.5,286046995.5,Y
1653927475.4,286046992.6,P
1653927495.2,286046991.8,N
1653927515.1,286046990.4,N
1653927516.0,286046990.4,N
1653927535.8,286046989.2,N
1653927555.6,286046987.4,Y
1653927575.5,286046993.8,P
1653927595.3,286046993.8,P
1653927615.2,286046996.0,P
1653927635.9,286046997.2,N
1653927655.4,286047001.1,N
1653927675.2,286047011.9,Y
1653927695.0,286047007.5,P
1653927696.0,286047007.5,N
1653927715.8,286047010.4,N
1653927735.6,286047009.9,N
1653927755.5,286047009.4,N
1653927775.3,286047004.7,N
1653927795.1,286047003.0,N
1653927815.9,286047001.6,N
1653927835.7,286047003.4,N
1653927855.6,286047002.8,N
1653927875.4,286046995.2,N
1653927895.2,286046994.0,N
1653927915.1,286046995.2,N
1653927916.0,286046995.2,N
1653927935.8,286046999.5,N
1653927955.7,286047002.7,N
1653927975.5,286047002.2,N
1653927995.3,286046999.8,N
1653928015.2,286046996.6,N
1653928035.0,286046998.7,N
1653928035.9,286046998.7,N
1653928055.8,286046998.3,N
1653928075.6,286046996.8,N
1653928095.5,286046996.3,N
1653928115.3,286046995.2,N
1653928135.1,286046995.5,N
1653928155.9,286046999.0,N
1653928175.7,286047000.2,N
1653928195.5,286047004.0,N
1653928215.4,286046990.3,N
1653928235.2,286046991.2,N
1653928255.1,286046985.4,N
1653928256.0,286046985.4,N
1653928275.8,286046992.6,N
1653928295.6,286046995.3,N
1653928315.5,286047000.7,N
1653928335.3,286046999.7,N
1653928355.1,286047003.4,N
1653928375.9,286047007.0,N
1653928395.7,286047008.6,N
1653928415.6,286047008.3,N
1653928435.4,286047007.4,N
1653928455.2,286047005.5,N
1653928475.1,286047004.1,N
1653928476.0,286047004.1,N
1653928495.8,286047005.6,N
1653928515.6,286047005.8,N
1653928535.5,286047005.2,N
1653928555.3,286047004.9,N
1653928575.2,286047005.4,N
1653928595.9,286047005.3,N
1653928615.7,286047002.5,N
1653928635.6,286047005.6,N
1653928655.4,286047003.7,N
1653928675.2,286047004.4,N
1653928695.1,286047001.8,N
1653928696.0,286047001.8,N
1653928715.8,286047000.2,N
1653928735.7,286047003.2,N
1653928755.5,286047003.0,N
1653928775.3,286046996.6,N
1653928795.2,286046996.5,N
1653928815.0,286046992.4,N
1653928815.9,286046992.4,N
1653928835.8,286046987.0,Y
1653928855.6,286046987.0,P
1653928875.4,286046987.8,N
1653928895.3,286046988.7,N
1653928915.1,286046990.0,N
1653928935.8,286046991.4,N
1653928955.7,286046994.6,N
1653928975.5,286046993.3,N
1653928995.3,286046997.5,N
1653929015.2,286046998.4,N
1653929035.0,286046996.5,N
1653929035.9,286046996.5,N
1653929055.8,286046998.2,N
1653929075.6,286047000.6,N
1653929095.4,286047003.2,N
1653929115.3,286047005.2,N
1653929135.1,286047003.5,N
1653929155.8,286047005.8,N
1653929175.7,286047005.6,N
1653929195.5,286047003.1,N
1653929215.4,286047003.0,N
1653929235.2,286047003.3,N
1653929255.0,286047002.9,N
1653929255.9,286047002.9,N
1653929275.8,286047002.1,N
1653929295.6,286047001.3,N
1653929315.4,286047001.8,N
1653929335.3,286047002.0,N
1653929355.1,286047001.8,N
1653929375.9,286047001.8,N
1653929395.7,286047005.1,N
1653929415.5,286047010.2,N
1653929435.4,286047009.3,N
1653929455.2,286047012.7,N
1653929475.0,286047012.8,N
1653929475.9,286047012.8,N
1653929495.8,286047015.3,Y
1653929515.6,286047009.1,P
1653929535.5,286047006.3,N
1653929555.3,286047006.0,N
1653929575.1,286047004.0,N
1653929595.9,286046999.3,N
1653929615.7,286046993.5,N
1653929635.5,286046985.8,N
1653929655.4,286046985.9,N
1653929675.2,286046983.8,N
1653929695.1,286046986.1,N
1653929696.0,286046986.1,N
1653929715.8,286046987.5,N
1653929735.6,286046994.0,N
1653929755.5,286047000.4,N
1653929775.3,286047005.0,N
1653929795.1,286047010.4,N
1653929815.9,286047013.6,N
1653929835.7,286047016.7,N
1653929855.6,286047016.2,N
1653929875.4,286047019.3,N
1653929895.2,286047023.5,N
1653929915.1,286047024.6,N
1653929916.0,286047024.6,N
1653929935.8,286047025.8,N
1653929955.6,286047029.2,N
1653929975.5,286047030.4,N
1653929995.3,286047029.0,N
